Location: *
(10.5081°N, 66.9194°W)
Time: 03:36:34
(UTC+00:00)

Lacrosse 4 Rocket - Pass Details

Date: 30 March 2020
Orbit: 538 x 621 km, 68.0° (Epoch: 25 May)

Event Time Altitude Azimuth Distance (km) Brightness Sun altitude
Rises 23:39:04 0° 320° (NW) 2,858 5.7 -15.7°
Reaches altitude 10° 23:41:43 10° 305° (NW) 1,943 5.1 -16.3°
Maximum altitude 23:45:07 22° 254° (WSW) 1,302 4.0 -17.1°
Drops below altitude 10° 23:48:28 10° 202° (SSW) 1,906 4.2 -17.9°
Sets 23:51:03 0° 187° (S) 2,789 4.9 -18.6°
